User: anonymous
Location: Unspecified
(0.0000°N, 0.0000°E)
Time: 01:39:57
(UTC+02:00)
Language:

Cosmos 1933 - Orbit

View from above orbital plane
View from above orbital plane
View from above satellite
View from above satellite

Ground track
Ground track

The orbit data is extracted from the following two-line orbital elements,

1 18958U 88020A   14212.63635877  .00001770  00000-0  13775-3 0  3809
2 18958 082.5294 037.1570 0010972 251.4449 108.5584 15.00655498433648
Epoch (UTC): 31 July 2014 15:16:21
Eccentricity: 0.0010972
inclination: 82.5294°
perigee height: 557 km
apogee height: 572 km
right ascension of ascending node: 37.1570°
argument of perigee: 251.4449°
revolutions per day: 15.00655498
mean anomaly at epoch: 108.5584°
orbit number at epoch: 43364

The dashed part of the orbit path shows where the satellite is in the earth's shadow,  

DLR